Time,TemperatureF,DewpointF,PressureIn,WindDirection,WindDirectionDegrees,WindSpeedMPH,WindSpeedGustMPH,Humidity,HourlyPrecipIn,Conditions,Clouds,dailyrainin,SolarRadiationWatts/m^2,SoftwareType,DateUTC
2013-02-04 00:01:00,38.0,34.0,-100.00,NW,323,3.0,5.0,84,0.00,,,0.00,1.000000,,2013-02-04 08:01:00,
2013-02-04 00:32:00,39.0,34.0,-100.00,SW,227,3.0,5.0,83,0.00,,,0.00,1.000000,,2013-02-04 08:32:00,
2013-02-04 00:42:00,39.0,34.0,-100.00,SW,227,3.0,5.0,83,0.00,,,0.00,1.000000,,2013-02-04 08:42:00,
2013-02-04 00:52:00,39.0,34.0,-100.00,SW,227,3.0,5.0,83,0.00,,,0.00,1.000000,,2013-02-04 08:52:00,
2013-02-04 01:01:00,39.0,34.0,-100.00,SW,227,3.0,5.0,83,0.00,,,0.00,1.000000,,2013-02-04 09:01:00,
2013-02-04 01:32:00,35.0,32.0,-100.00,SW,223,2.0,5.0,89,0.00,,,0.00,1.000000,,2013-02-04 09:32:00,
2013-02-04 01:42:00,35.0,32.0,-100.00,SW,223,2.0,5.0,89,0.00,,,0.00,1.000000,,2013-02-04 09:42:00,
2013-02-04 01:52:00,35.0,32.0,-100.00,SW,223,2.0,5.0,89,0.00,,,0.00,1.000000,,2013-02-04 09:52:00,
2013-02-04 02:01:00,35.0,32.0,-100.00,SW,223,2.0,5.0,89,0.00,,,0.00,1.000000,,2013-02-04 10:01:00,
2013-02-04 02:32:00,33.0,30.0,-100.00,SW,218,2.0,5.0,90,0.00,,,0.00,1.000000,,2013-02-04 10:32:00,
2013-02-04 02:42:00,33.0,30.0,-100.00,SW,218,2.0,5.0,90,0.00,,,0.00,1.000000,,2013-02-04 10:42:00,
2013-02-04 02:52:00,33.0,30.0,-100.00,SW,218,2.0,5.0,90,0.00,,,0.00,1.000000,,2013-02-04 10:52:00,
2013-02-04 03:01:00,33.0,30.0,-100.00,SW,218,2.0,5.0,90,0.00,,,0.00,1.000000,,2013-02-04 11:01:00,
2013-02-04 03:33:00,34.0,32.0,-100.00,SW,215,2.0,5.0,91,0.00,,,0.00,1.000000,,2013-02-04 11:33:00,
2013-02-04 03:42:00,34.0,32.0,-100.00,SW,215,2.0,5.0,91,0.00,,,0.00,1.000000,,2013-02-04 11:42:00,
2013-02-04 03:52:00,34.0,32.0,-100.00,SW,215,2.0,5.0,91,0.00,,,0.00,1.000000,,2013-02-04 11:52:00,
2013-02-04 04:02:00,34.0,32.0,-100.00,SW,215,2.0,5.0,91,0.00,,,0.00,1.000000,,2013-02-04 12:02:00,
2013-02-04 04:33:00,32.0,30.0,-100.00,NNE,32,3.0,4.0,93,0.00,,,0.00,1.000000,,2013-02-04 12:33:00,
2013-02-04 04:42:00,32.0,30.0,-100.00,NNE,32,3.0,4.0,93,0.00,,,0.00,1.000000,,2013-02-04 12:42:00,
2013-02-04 04:53:00,32.0,30.0,-100.00,NNE,32,3.0,4.0,93,0.00,,,0.00,1.000000,,2013-02-04 12:53:00,
2013-02-04 05:02:00,32.0,30.0,-100.00,NNE,32,3.0,4.0,93,0.00,,,0.00,1.000000,,2013-02-04 13:02:00,
2013-02-04 05:33:00,33.0,31.0,-100.00,WSW,257,4.0,6.0,93,0.00,,,0.00,1.000000,,2013-02-04 13:33:00,
2013-02-04 05:42:00,33.0,31.0,-100.00,WSW,257,4.0,6.0,93,0.00,,,0.00,1.000000,,2013-02-04 13:42:00,
2013-02-04 05:52:00,33.0,31.0,-100.00,WSW,257,4.0,6.0,93,0.00,,,0.00,1.000000,,2013-02-04 13:52:00,
2013-02-04 06:02:00,33.0,31.0,-100.00,WSW,257,4.0,6.0,93,0.00,,,0.00,1.000000,,2013-02-04 14:02:00,
2013-02-04 06:33:00,35.0,32.0,-100.00,East,93,3.0,9.0,88,0.00,,,0.00,1.000000,,2013-02-04 14:33:00,
2013-02-04 06:42:00,35.0,32.0,-100.00,East,93,3.0,9.0,88,0.00,,,0.00,1.000000,,2013-02-04 14:42:00,
2013-02-04 06:52:00,35.0,32.0,-100.00,East,93,3.0,9.0,88,0.00,,,0.00,1.000000,,2013-02-04 14:52:00,
2013-02-04 07:03:00,35.0,32.0,-100.00,East,93,3.0,9.0,88,0.00,,,0.00,1.000000,,2013-02-04 15:03:00,
2013-02-04 07:33:00,34.0,31.0,-100.00,NE,40,2.0,6.0,89,0.00,,,0.00,1.000000,,2013-02-04 15:33:00,
2013-02-04 07:43:00,34.0,31.0,-100.00,NE,40,2.0,6.0,89,0.00,,,0.00,1.000000,,2013-02-04 15:43:00,
2013-02-04 07:52:00,34.0,31.0,-100.00,NE,40,2.0,6.0,89,0.00,,,0.00,1.000000,,2013-02-04 15:52:00,
2013-02-04 08:02:00,34.0,31.0,-100.00,NE,40,2.0,6.0,89,0.00,,,0.00,1.000000,,2013-02-04 16:02:00,
2013-02-04 10:32:00,41.0,34.0,-100.00,West,268,1.0,4.0,77,-99.99,,,0.00,145.000000,,2013-02-04 18:32:00,
2013-02-04 10:42:00,41.0,34.0,-100.00,West,268,1.0,4.0,77,-99.99,,,0.00,145.000000,,2013-02-04 18:42:00,
2013-02-04 10:52:00,41.0,34.0,-100.00,West,268,1.0,4.0,77,-99.99,,,0.00,145.000000,,2013-02-04 18:52:00,
2013-02-04 11:01:00,41.0,34.0,-100.00,West,268,1.0,4.0,77,-99.99,,,0.00,145.000000,,2013-02-04 19:01:00,
2013-02-04 11:32:00,43.0,33.0,-100.00,NNW,337,2.0,5.0,68,0.00,,,0.00,170.000000,,2013-02-04 19:32:00,
2013-02-04 11:42:00,43.0,33.0,-100.00,NNW,337,2.0,5.0,68,0.00,,,0.00,170.000000,,2013-02-04 19:42:00,
2013-02-04 11:52:00,43.0,33.0,-100.00,NNW,337,2.0,5.0,68,0.00,,,0.00,170.000000,,2013-02-04 19:52:00,
2013-02-04 12:01:00,43.0,33.0,-100.00,NNW,337,2.0,5.0,68,0.00,,,0.00,170.000000,,2013-02-04 20:01:00,
2013-02-04 13:32:00,48.0,33.0,-100.00,WSW,241,2.0,4.0,56,-99.99,,,0.00,247.000000,,2013-02-04 21:32:00,
2013-02-04 13:43:00,48.0,33.0,-100.00,WSW,241,2.0,4.0,56,-99.99,,,0.00,247.000000,,2013-02-04 21:43:00,
2013-02-04 13:52:00,48.0,33.0,-100.00,WSW,241,2.0,4.0,56,-99.99,,,0.00,247.000000,,2013-02-04 21:52:00,
2013-02-04 14:02:00,48.0,33.0,-100.00,WSW,241,2.0,4.0,56,-99.99,,,0.00,247.000000,,2013-02-04 22:02:00,
2013-02-04 14:33:00,51.0,34.0,-100.00,South,174,2.0,4.0,52,0.00,,,0.00,227.000000,,2013-02-04 22:33:00,
2013-02-04 14:42:00,51.0,34.0,-100.00,South,174,2.0,4.0,52,0.00,,,0.00,227.000000,,2013-02-04 22:42:00,
2013-02-04 14:52:00,51.0,34.0,-100.00,South,174,2.0,4.0,52,0.00,,,0.00,227.000000,,2013-02-04 22:52:00,
2013-02-04 15:01:00,51.0,34.0,-100.00,South,174,2.0,4.0,52,0.00,,,0.00,227.000000,,2013-02-04 23:01:00,
2013-02-04 15:32:00,53.0,33.0,-100.00,ENE,76,3.0,5.0,46,0.00,,,0.00,304.000000,,2013-02-04 23:32:00,
2013-02-04 15:42:00,53.0,33.0,-100.00,ENE,76,3.0,5.0,46,0.00,,,0.00,304.000000,,2013-02-04 23:42:00,
2013-02-04 15:52:00,53.0,33.0,-100.00,ENE,76,3.0,5.0,46,0.00,,,0.00,304.000000,,2013-02-04 23:52:00,
2013-02-04 16:01:00,53.0,33.0,-100.00,ENE,76,3.0,5.0,46,0.00,,,0.00,304.000000,,2013-02-05 00:01:00,
2013-02-04 16:32:00,53.0,32.0,-100.00,SSW,202,0.0,4.0,45,0.00,,,0.00,136.000000,,2013-02-05 00:32:00,
2013-02-04 16:42:00,53.0,32.0,-100.00,SSW,202,0.0,4.0,45,0.00,,,0.00,136.000000,,2013-02-05 00:42:00,
2013-02-04 16:52:00,53.0,32.0,-100.00,SSW,202,0.0,4.0,45,0.00,,,0.00,136.000000,,2013-02-05 00:52:00,
2013-02-04 17:01:00,53.0,32.0,-100.00,SSW,202,0.0,4.0,45,0.00,,,0.00,136.000000,,2013-02-05 01:01:00,
2013-02-04 17:32:00,48.0,32.0,-100.00,SW,226,1.0,4.0,53,0.00,,,0.00,42.000000,,2013-02-05 01:32:00,
2013-02-04 17:42:00,48.0,32.0,-100.00,SW,226,1.0,4.0,53,0.00,,,0.00,42.000000,,2013-02-05 01:42:00,
2013-02-04 17:52:00,48.0,32.0,-100.00,SW,226,1.0,4.0,53,0.00,,,0.00,42.000000,,2013-02-05 01:52:00,
2013-02-04 18:01:00,48.0,32.0,-100.00,SW,226,1.0,4.0,53,0.00,,,0.00,42.000000,,2013-02-05 02:01:00,
2013-02-04 18:32:00,45.0,33.0,-100.00,South,175,1.0,3.0,63,0.00,,,0.00,1.000000,,2013-02-05 02:32:00,
2013-02-04 18:42:00,45.0,33.0,-100.00,South,175,1.0,3.0,63,0.00,,,0.00,1.000000,,2013-02-05 02:42:00,
2013-02-04 18:52:00,45.0,33.0,-100.00,South,175,1.0,3.0,63,0.00,,,0.00,1.000000,,2013-02-05 02:52:00,
2013-02-04 19:01:00,45.0,33.0,-100.00,South,175,1.0,3.0,63,0.00,,,0.00,1.000000,,2013-02-05 03:01:00,
2013-02-04 19:32:00,43.0,33.0,-100.00,SSW,211,1.0,4.0,67,0.00,,,0.00,1.000000,,2013-02-05 03:32:00,
2013-02-04 19:42:00,43.0,33.0,-100.00,SSW,211,1.0,4.0,67,0.00,,,0.00,1.000000,,2013-02-05 03:42:00,
2013-02-04 19:52:00,43.0,33.0,-100.00,SSW,211,1.0,4.0,67,0.00,,,0.00,1.000000,,2013-02-05 03:52:00,
2013-02-04 20:01:00,43.0,33.0,-100.00,SSW,211,1.0,4.0,67,0.00,,,0.00,1.000000,,2013-02-05 04:01:00,
2013-02-04 20:32:00,40.0,32.0,-100.00,SW,230,2.0,4.0,73,0.00,,,0.00,1.000000,,2013-02-05 04:32:00,
2013-02-04 20:42:00,40.0,32.0,-100.00,SW,230,2.0,4.0,73,0.00,,,0.00,1.000000,,2013-02-05 04:42:00,
2013-02-04 20:52:00,40.0,32.0,-100.00,SW,230,2.0,4.0,73,0.00,,,0.00,1.000000,,2013-02-05 04:52:00,
2013-02-04 21:02:00,40.0,32.0,-100.00,SW,230,2.0,4.0,73,0.00,,,0.00,1.000000,,2013-02-05 05:02:00,
2013-02-04 21:32:00,38.0,32.0,-100.00,SW,226,3.0,7.0,78,0.00,,,0.00,1.000000,,2013-02-05 05:32:00,
2013-02-04 21:42:00,38.0,32.0,-100.00,SW,226,3.0,7.0,78,0.00,,,0.00,1.000000,,2013-02-05 05:42:00,
2013-02-04 21:52:00,38.0,32.0,-100.00,SW,226,3.0,7.0,78,0.00,,,0.00,1.000000,,2013-02-05 05:52:00,
2013-02-04 22:01:00,38.0,32.0,-100.00,SW,226,3.0,7.0,78,0.00,,,0.00,1.000000,,2013-02-05 06:01:00,
2013-02-04 22:32:00,37.0,31.0,-100.00,WNW,293,2.0,5.0,79,0.00,,,0.00,1.000000,,2013-02-05 06:32:00,
2013-02-04 22:42:00,37.0,31.0,-100.00,WNW,293,2.0,5.0,79,0.00,,,0.00,1.000000,,2013-02-05 06:42:00,
2013-02-04 22:52:00,37.0,31.0,-100.00,WNW,293,2.0,5.0,79,0.00,,,0.00,1.000000,,2013-02-05 06:52:00,
2013-02-04 23:01:00,37.0,31.0,-100.00,WNW,293,2.0,5.0,79,0.00,,,0.00,1.000000,,2013-02-05 07:01:00,
2013-02-04 23:32:00,37.0,32.0,-100.00,WSW,258,2.0,5.0,81,0.00,,,0.00,1.000000,,2013-02-05 07:32:00,
2013-02-04 23:42:00,37.0,32.0,-100.00,WSW,258,2.0,5.0,81,0.00,,,0.00,1.000000,,2013-02-05 07:42:00,
2013-02-04 23:52:00,37.0,32.0,-100.00,WSW,258,2.0,5.0,81,0.00,,,0.00,1.000000,,2013-02-05 07:52:00,